Flag for Turkmenistan Weather past 2 weeks in Ashgabat, Turkmenistan

Now
43 °F

Passing clouds.


Feels Like: 41 °F
Forecast: 37 / 50 °F
Wind: 3 mph from Southwest

Location: Ashgabat

Current Time: Dec 20, 2014 at 11:04:14 PM

Latest Report: Dec 20, 2014 at 10:30 PM


Visibility: 6 mi

Pressure: 30.18 "Hg

Humidity: 76%

Dew point: 36 °F

Location of AshgabatLocation

Historic Weather in Ashgabat — Graph

°F

Ashgabat temperature yesterday

Maximum temperature yesterday: 46 °F (at 5:00 PM)
Minimum temperature yesterday: 32 °F (at 9:00 AM)
Average temperature yesterday: 37 °F

Past Weeks' High & Low Weather Summary

 TemperatureHumidityPressure
High57 °F (Dec 13, 3:00 PM)100% (Dec 17, 11:00 PM)30.83 "Hg (Dec 17, 11:00 PM)
Low25 °F (Dec 8, 8:00 AM)24% (Dec 13, 2:00 PM)30.04 "Hg (Dec 20, 2:00 AM)
Average39 °F78%30.33 "Hg
* Reported Dec 5 10:00 PM — Dec 20 10:00 PM, Ashgabat, Weather by CustomWeather, © 2014

Note: Actual official high and low records may vary slightly from our data, if they occured in-between our weather recording intervals... More about our weather records

Advertising

Ashgabat weather history for previous 24 hours

 ConditionsComfort  
Time TempWeatherWind HumidityBarometerVisibility
10:00 PM
Dec 20
43 °FPassing clouds.3 mph76%30.15 "Hg4 mi
9:00 PM45 °FPassing clouds.3 mph76%30.15 "HgN/A
8:00 PM46 °FPartly cloudy.3 mph76%30.18 "Hg4 mi
7:00 PM45 °FPassing clouds.6 mph76%30.15 "Hg6 mi
6:00 PM46 °FPartly sunny.6 mph76%30.15 "Hg4 mi
5:00 PM52 °FPartly sunny.6 mph58%30.12 "HgN/A
4:00 PM55 °FPartly sunny.8 mph55%30.12 "HgN/A
3:00 PM55 °FPartly sunny.10 mph59%30.12 "HgN/A
2:00 PM57 °FPartly sunny.8 mph59%30.12 "HgN/A
1:00 PM54 °FPartly sunny.3 mph67%30.12 "Hg6 mi
12:00 PM48 °FBroken clouds.No wind76%30.15 "Hg4 mi
11:00 AM45 °FFog.1 mph81%30.15 "Hg3 mi
9:00 AM41 °FMostly cloudy.3 mph87%30.12 "Hg4 mi
8:00 AM41 °FPartly cloudy.3 mph81%30.09 "HgN/A
7:00 AM41 °FPassing clouds.6 mph87%30.07 "HgN/A
6:00 AM41 °FPassing clouds.1 mph87%30.07 "HgN/A
5:00 AM39 °FPassing clouds.1 mph93%30.07 "Hg3 mi
4:00 AM39 °FFog.No wind93%30.07 "Hg2 mi
3:00 AM41 °FFog.No wind93%30.04 "Hg2 mi
2:30 AM39 °FFog.No wind100%30.07 "Hg2 mi
2:00 AM39 °FFog.No wind93%30.04 "Hg2 mi
1:30 AM39 °FFog.No wind93%30.07 "Hg2 mi
1:00 AM39 °FFog.No wind93%30.07 "Hg1 mi
12:30 AM39 °FFog.No wind93%30.07 "Hg1 mi
12:00 AM39 °FFog.No wind93%30.07 "Hg1 mi
11:30 PM
Dec 19
37 °FFog.No wind100%30.07 "Hg1 mi
11:00 PM39 °FFog.1 mph93%30.07 "Hg1 mi
Weather by CustomWeather, © 2014

See weather overviewHow to use our weather pages